Flag for Iran Weather past 2 weeks in Esfahãn, Iran

Now
97 °F

Sunny.


Feels Like: 92 °F
Forecast: 69 / 97 °F
Wind: 18 mph from North

Location: Esfahan

Current Time: Jul 29, 2014 at 5:18:39 PM

Latest Report: Jul 29, 2014 at 4:30 PM


Visibility: 2 mi

Pressure: 29.71 "Hg

Humidity: 13%

Dew point: 39 °F

Location of EsfahãnLocation

Historic Weather in Esfahãn — Graph

°F

Esfahãn temperature yesterday

Maximum temperature yesterday: 106 °F (at 2:30 PM)
Minimum temperature yesterday: 61 °F (at 6:00 AM)
Average temperature yesterday: 88 °F

Past Weeks' High & Low Weather Summary

 TemperatureHumidityPressure
High106 °F (Jul 28, 2:30 PM)34% (Jul 15, 6:30 AM)30.01 "Hg (Jul 15, 6:30 AM)
Low59 °F (Jul 15, 6:00 AM)3% (Jul 28, 1:30 PM)29.68 "Hg (Jul 21, 7:00 PM)
Average86 °F13%29.86 "Hg
* Reported Jul 14 4:30 PM — Jul 29 4:30 PM, Esfahãn, Weather by CustomWeather, © 2014

Note: Actual official high and low records may vary slightly from our data, if they occured in-between our weather recording intervals... More about our weather records

Advertising

Esfahãn weather history for previous 24 hours

 ConditionsComfort  
Time TempWeatherWind HumidityBarometerVisibility
4:30 PM
Jul 29
97 °FSunny.18 mph13%29.71 "Hg2 mi
4:00 PM99 °FSunny.12 mph14%29.71 "Hg2 mi
3:30 PM99 °FSunny.7 mph10%29.71 "Hg3 mi
3:00 PM99 °FSunny.7 mph11%29.71 "Hg3 mi
2:30 PM97 °FSunny.No wind13%29.74 "Hg2 mi
2:00 PM97 °FSunny.7 mph12%29.74 "Hg2 mi
1:30 PM97 °FSunny.7 mph12%29.77 "Hg2 mi
1:00 PM95 °FSunny.5 mph12%29.77 "Hg2 mi
12:30 PM93 °FSunny.5 mph13%29.77 "Hg2 mi
12:00 PM93 °FSunny.5 mph15%29.77 "Hg2 mi
11:30 AM93 °FSunny.5 mph16%29.80 "Hg2 mi
11:00 AM93 °FSunny.5 mph16%29.80 "Hg2 mi
10:30 AM91 °FSunny.9 mph16%29.80 "Hg2 mi
10:00 AM90 °FSunny.No wind20%29.80 "Hg2 mi
9:30 AM88 °FSunny.No wind22%29.80 "Hg2 mi
9:00 AM84 °FSunny.7 mph27%29.80 "Hg2 mi
8:30 AM82 °FSunny.5 mph26%29.80 "Hg2 mi
8:00 AM79 °FSunny.5 mph30%29.80 "Hg2 mi
7:30 AM77 °FClear.5 mph34%29.80 "Hg2 mi
7:00 AM77 °FClear.5 mph30%29.77 "Hg2 mi
6:30 AM73 °FClear.5 mph33%29.77 "Hg2 mi
6:00 AM75 °FClear.7 mph31%29.77 "Hg3 mi
5:30 AM77 °FClear.14 mph28%29.77 "Hg10 mi
5:00 AM77 °FClear.7 mph26%29.77 "Hg10 mi
4:30 AM79 °FClear.7 mph24%29.74 "Hg10 mi
4:00 AM81 °FClear.9 mph21%29.74 "Hg10 mi
3:30 AM79 °FClear.9 mph20%29.74 "Hg10 mi
3:00 AM77 °FClear.7 mph19%29.74 "Hg10 mi
2:30 AM82 °FClear.9 mph16%29.74 "Hg10 mi
2:00 AM81 °FClear.7 mph16%29.77 "Hg10 mi
1:30 AM79 °FClear.No wind16%29.74 "Hg10 mi
1:00 AM84 °FClear.No wind13%29.74 "Hg10 mi
12:30 AM86 °FClear.9 mph12%29.74 "Hg10 mi
12:00 AM79 °FClear.9 mph17%29.74 "Hg10 mi
11:30 PM
Jul 28
77 °FClear.7 mph18%29.74 "Hg10 mi
11:00 PM81 °FClear.5 mph13%29.74 "Hg5 mi
10:30 PM82 °FClear.7 mph12%29.74 "Hg5 mi
10:00 PM88 °FClear.7 mph10%29.74 "Hg4 mi
9:30 PM88 °FClear.12 mph9%29.71 "Hg5 mi
9:00 PM93 °FClear.9 mph8%29.71 "Hg4 mi
8:30 PM95 °FClear.7 mph7%29.71 "Hg4 mi
8:00 PM97 °FClear.5 mph5%29.71 "Hg4 mi
7:30 PM102 °FSunny.9 mph5%29.71 "Hg3 mi
7:00 PM102 °FSunny.9 mph4%29.68 "Hg5 mi
6:30 PM104 °FSunny.12 mph3%29.68 "Hg10 mi
6:00 PM104 °FSunny.9 mph3%29.71 "Hg10 mi
5:30 PM106 °FSunny.9 mph3%29.71 "Hg10 mi
5:00 PM106 °FSunny.5 mph3%29.71 "Hg10 mi
Weather by CustomWeather, © 2014

See weather overviewHow to use our weather pages